Weather History for Cortez, CO

Change the Weather History Date:

Wednesday, June 26, 2013

  Actual Average Record
Temperature  
Mean Temperature 70 °F 68 °F  
Max Temperature 93 °F 88 °F 95 °F (2002)
Min Temperature 46 °F 47 °F 39 °F (2003)
Degree Days  
Heating Degree Days 0 1  
Month to date heating degree days 12 74  
Since 1 June heating degree days 12 74  
Since 1 July heating degree days 6406 6441  
Cooling Degree Days 5 3  
Month to date cooling degree days 82 44  
Year to date cooling degree days 82 49  
Since 1 June cooling degree days 82 44  
Growing Degree Days 18 (Base 50)    
Moisture  
Dew Point 32 °F    
Average Humidity 35    
Maximum Humidity 60    
Minimum Humidity 10    
Precipitation  
Precipitation 0.00 in 0.01 in 0.05 in (2001)
Month to date precipitation T 0.43  
Year to date precipitation 3.33 5.57  
Sea Level Pressure  
Sea Level Pressure 29.97 in    
Wind  
Wind Speed 6 mph (NNE)    
Max Wind Speed 16 mph    
Max Gust Speed 22 mph    
Visibility 10 miles    
Events      
T = Trace of Precipitation, MM = Missing Value Source: NWS Daily Summary

Daily Weather History Graph

Daily Weather History Graph

Search for Another Location

Airport:

Trip Planner

Search our weather history database for the weather conditions in past years. The results will help you decide how hot, cold, wet, or windy it might be!

Date:

Astronomy

Jun. 26, 2013 Rise Set
Actual Time 5:55 AM MDT 8:39 PM MDT
Civil Twilight 5:24 AM MDT 9:10 PM MDT
Nautical Twilight 4:46 AM MDT 9:48 PM MDT
Astronomical Twilight 4:02 AM MDT 10:32 PM MDT
Moon 11:10 PM MDT (6/26) 9:46 AM MDT (6/26)
Length of Visible Light 15h 45m
Length of Day
14h 43m
Waning Gibbous, 85% of the Moon is Illuminated
Jun 26
Waning Gibbous
Jun 29
Last Quarter
Jul 8
New
Jul 15
First Quarter
Jul 22
Full

Hourly Weather History & Observations

Time (MDT) Temp. Windchill Dew Point Humidity Pressure Visibility Wind Dir Wind Speed Gust Speed Precip Events Conditions
12:53 AM 57.9 °F - 30.9 °F 36% 29.92 in 10.0 mi NE 5.8 mph - N/A   Clear
1:53 AM 52.0 °F - 33.1 °F 49% 29.94 in 10.0 mi Calm Calm - N/A   Clear
2:53 AM 50.0 °F - 33.1 °F 52% 29.95 in 10.0 mi Calm Calm - N/A   Clear
3:53 AM 48.0 °F - 32.0 °F 54% 29.96 in 10.0 mi East 5.8 mph - N/A   Clear
4:53 AM 46.9 °F - 34.0 °F 61% 29.98 in 10.0 mi East 3.5 mph - N/A   Clear
5:53 AM 46.0 °F 44.8 °F 30.9 °F 56% 30.00 in 10.0 mi East 3.5 mph - N/A   Clear
6:53 AM 53.1 °F - 33.1 °F 47% 30.01 in 10.0 mi ENE 5.8 mph - N/A   Clear
7:53 AM 63.0 °F - 36.0 °F 37% 30.00 in 10.0 mi ENE 4.6 mph - N/A   Clear
8:53 AM 72.0 °F - 37.0 °F 28% 30.01 in 10.0 mi NNE 3.5 mph - N/A   Clear
9:53 AM 80.1 °F - 30.9 °F 17% 30.01 in 10.0 mi Calm Calm - N/A   Clear
10:53 AM 82.9 °F - 33.1 °F 17% 30.01 in 10.0 mi Variable 5.8 mph - N/A   Clear
11:53 AM 86.0 °F - 33.1 °F 15% 30.00 in 10.0 mi WSW 4.6 mph - N/A   Clear
12:53 PM 89.1 °F - 30.9 °F 12% 29.99 in 10.0 mi Variable 4.6 mph - N/A   Clear
1:53 PM 89.1 °F - 28.9 °F 12% 29.99 in 10.0 mi Variable 5.8 mph - N/A   Clear
2:53 PM 91.0 °F - 28.9 °F 11% 29.98 in 10.0 mi West 9.2 mph - N/A   Clear
3:53 PM 91.9 °F - 28.0 °F 10% 29.97 in 10.0 mi WNW 12.7 mph 18.4 mph N/A   Clear
4:53 PM 91.9 °F - 28.0 °F 10% 29.96 in 10.0 mi NW 8.1 mph 17.3 mph N/A   Clear
5:53 PM 91.0 °F - 28.0 °F 10% 29.95 in 10.0 mi WNW 16.1 mph - N/A   Clear
6:53 PM 90.0 °F - 27.0 °F 10% 29.93 in 10.0 mi WNW 11.5 mph - N/A   Clear
7:53 PM 88.0 °F - 27.0 °F 11% 29.91 in 10.0 mi WNW 6.9 mph - N/A   Clear
8:53 PM 73.0 °F - 37.0 °F 27% 29.94 in 10.0 mi Calm Calm - N/A   Clear
9:53 PM 66.9 °F - 36.0 °F 32% 29.96 in 10.0 mi ENE 8.1 mph - N/A   Clear
10:53 PM 64.0 °F - 32.0 °F 30% 29.97 in 10.0 mi ENE 9.2 mph - N/A   Clear
11:53 PM 62.1 °F - 32.0 °F 32% 29.98 in 10.0 mi NNE 4.6 mph - N/A   Clear